Charlottetown, Prince Edward Island

6:24 PM ADT on April 27, 2017 (GMT -0300)
Charlottetown

Weather History for CYYG - February, 2014

Change the Weather History Date:

Tuesday, February 11, 2014

  Actual Average Record
Temperature  
Mean Temperature 6 °F -  
Max Temperature 12 °F 29 °F 41 °F (2002)
Min Temperature 0 °F 13 °F 0 °F (2014)
Degree Days  
Heating Degree Days 59    
Moisture  
Dew Point -2 °F    
Average Humidity 67    
Maximum Humidity 92    
Minimum Humidity 35    
Precipitation  
Precipitation 0.00 in 0.12 in - ()
Sea Level Pressure  
Sea Level Pressure 30.10 in    
Wind  
Wind Speed 5 mph ()    
Max Wind Speed 14 mph    
Max Gust Speed -    
Visibility 14.8 miles    
Events Snow    
Averages and records for this station are not official NWS values.
T = Trace of Precipitation, MM = Missing Value Source: Averaged Metar Reports

Daily Weather History Graph

Daily Weather History Graph

Search for Another Location

Airport or City:

Trip Planner

Search our weather history database for the weather conditions in past years. The results will help you decide how hot, cold, wet, or windy it might be!

Date:

Astronomy

Feb. 11, 2014 Rise Set
Actual Time 7:21 AM AST 5:32 PM AST
Civil Twilight 6:50 AM AST 6:03 PM AST
Nautical Twilight 6:15 AM AST 6:38 PM AST
Astronomical Twilight 5:40 AM AST 7:13 PM AST
Moon 2:44 PM AST (2/11) 5:00 AM AST (2/11)
Length of Visible Light 11h 12m
Length of Day
10h 10m
Waxing Gibbous, 90% of the Moon is Illuminated
Feb 11
Waxing Gibbous
Feb 14
Full
Feb 22
Last Quarter
Mar 1
New
Mar 8
First Quarter

Hourly Weather History & Observations

Time (AST) Temp. Windchill Dew Point Humidity Pressure Visibility Wind Dir Wind Speed Gust Speed Precip Events Conditions
12:00 AM 6.8 °F -0.1 °F 5.0 °F 92% 30.04 in 10.0 mi WNW 3.5 mph - N/A Snow Light Snow Showers
12:15 AM 6.8 °F -2.0 °F 3.2 °F 85% 30.04 in 15.0 mi WSW 4.6 mph - N/A   Scattered Clouds
1:00 AM 5.0 °F -5.6 °F 3.2 °F 92% 30.04 in 15.0 mi WSW 5.8 mph - N/A   Scattered Clouds
2:00 AM 5 °F - 1 °F 75% 30.05 in 15 mi NW 4.6 mph - -   Partly Cloudy
2:00 AM 5.0 °F -4.1 °F 1.4 °F 85% 30.05 in 15.0 mi NW 4.6 mph - N/A   Mostly Cloudy
3:00 AM 3.2 °F -6.2 °F -0.4 °F 85% 30.05 in 15.0 mi NW 4.6 mph - N/A   Scattered Clouds
4:00 AM 5.0 °F -4.1 °F -0.4 °F 78% 30.06 in 15.0 mi West 4.6 mph - N/A   Scattered Clouds
5:00 AM 5.0 °F -5.6 °F -2.2 °F 72% 30.07 in 15.0 mi WNW 5.8 mph - N/A   Partly Cloudy
6:00 AM 3.2 °F -6.2 °F -2.2 °F 78% 30.08 in 15.0 mi WSW 4.6 mph - N/A   Partly Cloudy
7:00 AM 1.4 °F -12.5 °F -4.0 °F 78% 30.09 in 15.0 mi West 8.1 mph - N/A   Partly Cloudy
8:00 AM 1 °F - -3 °F 72% 30.12 in 15 mi West 6.9 mph - -   Scattered Clouds
8:00 AM 1.4 °F -11.3 °F -4.0 °F 78% 30.12 in 15.0 mi West 6.9 mph - N/A   Partly Cloudy
9:00 AM 5.0 °F -8.1 °F -0.4 °F 78% 30.13 in 15.0 mi West 8.1 mph - N/A   Partly Cloudy
10:00 AM 6.8 °F -6.9 °F -2.2 °F 67% 30.13 in 15.0 mi West 9.2 mph - N/A   Partly Cloudy
11:00 AM 8.6 °F -4.7 °F -4.0 °F 57% 30.13 in 15.0 mi West 9.2 mph - N/A   Partly Cloudy
12:00 PM 10.4 °F -2.4 °F -4.0 °F 52% 30.12 in 15.0 mi West 9.2 mph - N/A   Partly Cloudy
1:00 PM 10.4 °F -4.1 °F -4.0 °F 52% 30.11 in 15.0 mi West 11.5 mph - N/A   Partly Cloudy
2:00 PM 11 °F - -4 °F 35% 30.10 in 15 mi WSW 9.2 mph - -   Scattered Clouds
2:00 PM 12.2 °F -0.2 °F -4.0 °F 48% 30.10 in 15.0 mi WSW 9.2 mph - N/A   Partly Cloudy
3:00 PM 12.2 °F -1.8 °F -4.0 °F 48% 30.10 in 15.0 mi WNW 11.5 mph - N/A Snow Low Drifting Snow
4:00 PM 12.2 °F 1.7 °F -2.2 °F 53% 30.10 in 15.0 mi WSW 6.9 mph - N/A   Partly Cloudy
5:00 PM 10.4 °F 2.2 °F -2.2 °F 57% 30.11 in 15.0 mi West 4.6 mph - N/A   Scattered Clouds
6:00 PM 8.6 °F 2.0 °F -4.0 °F 57% 30.12 in 15.0 mi WNW 3.5 mph - N/A   Scattered Clouds
7:00 PM 8.6 °F 2.0 °F -2.2 °F 62% 30.13 in 15.0 mi WNW 3.5 mph - N/A   Mostly Cloudy
8:00 PM 10 °F - -0 °F 50% 30.14 in 15 mi WNW 4.6 mph - -   Mostly Cloudy
8:00 PM 10.4 °F 0.8 °F -0.4 °F 62% 30.14 in 15.0 mi WNW 5.8 mph - N/A   Mostly Cloudy
9:00 PM 10.4 °F 2.2 °F 3.2 °F 73% 30.15 in 15.0 mi WSW 4.6 mph - N/A   Mostly Cloudy
10:00 PM 8.6 °F -7.7 °F -4.0 °F 57% 30.16 in 15.0 mi WNW 13.8 mph - N/A   Mostly Cloudy
11:00 PM 5.0 °F -6.9 °F -5.8 °F 61% 30.16 in 15.0 mi West 6.9 mph - N/A   Scattered Clouds